Weather History for Apalachicola, FL

Change the Weather History Date:

Saturday, March 16, 2013

  Actual Average Record
Temperature  
Mean Temperature 62 °F 60 °F  
Max Temperature 73 °F 71 °F 79 °F (1977)
Min Temperature 50 °F 50 °F 31 °F (1988)
Degree Days  
Heating Degree Days 3    
Month to date heating degree days 167  
Since 1 July heating degree days 1006  
Cooling Degree Days 0    
Month to date cooling degree days 1  
Year to date cooling degree days 56  
Growing Degree Days 11 (Base 50)    
Moisture  
Dew Point 55 °F    
Average Humidity 84    
Maximum Humidity 84    
Minimum Humidity 83    
Precipitation  
Precipitation 0.00 in 0.18 in 3.17 in (2014)
Month to date precipitation 1.04 2.75  
Year to date precipitation 11.57 11.30  
Sea Level Pressure  
Sea Level Pressure 30.12 in    
Wind  
Wind Speed 8 mph (SSW)    
Max Wind Speed 15 mph    
Max Gust Speed 20 mph    
Visibility 10 miles    
Events      
T = Trace of Precipitation, MM = Missing Value Source: NWS Daily Summary

Daily Weather History Graph

Daily Weather History Graph

Search for Another Location

Airport:

Trip Planner

Search our weather history database for the weather conditions in past years. The results will help you decide how hot, cold, wet, or windy it might be!

Date:

Astronomy

Mar. 16, 2013 Rise Set
Actual Time 7:48 AM EDT 7:49 PM EDT
Civil Twilight 7:24 AM EDT 8:13 PM EDT
Nautical Twilight 6:56 AM EDT 8:40 PM EDT
Astronomical Twilight 6:29 AM EDT 9:08 PM EDT
Moon 10:39 AM EDT (3/16) No Moon Set
Length of Visible Light 12h 48m
Length of Day
12h 00m
Waxing Crescent, 23% of the Moon is Illuminated
Mar 16
Waxing Crescent
Mar 19
First Quarter
Mar 27
Full
Apr 3
Last Quarter
Apr 10
New

Hourly Weather History & Observations

Time (EDT) Temp. Dew Point Humidity Pressure Visibility Wind Dir Wind Speed Gust Speed Precip Events Conditions
12:53 AM 53.1 °F 48.0 °F 83% 30.19 in 10.0 mi Calm Calm - N/A   Clear
1:53 AM 57.9 °F 51.1 °F 78% 30.17 in 10.0 mi SW 6.9 mph - N/A   Clear
2:53 AM 57.0 °F 51.1 °F 81% 30.15 in 10.0 mi SW 5.8 mph - N/A   Clear
3:53 AM 54.0 °F 48.9 °F 83% 30.13 in 10.0 mi SSW 3.5 mph - N/A   Clear
4:53 AM 57.0 °F 53.1 °F 87% 30.11 in 10.0 mi SSW 6.9 mph - N/A   Clear
5:53 AM 51.1 °F 48.0 °F 89% 30.12 in 10.0 mi SW 3.5 mph - N/A   Clear
6:53 AM 54.0 °F 48.0 °F 80% 30.12 in 10.0 mi SW 5.8 mph - N/A   Clear
7:53 AM 59.0 °F 55.0 °F 87% 30.12 in 10.0 mi SW 4.6 mph - N/A   Clear
8:53 AM 60.1 °F 55.9 °F 86% 30.14 in 10.0 mi Calm Calm - N/A   Clear
9:53 AM 66.9 °F 55.9 °F 68% 30.15 in 10.0 mi West 8.1 mph - N/A   Clear
10:53 AM 71.1 °F 55.0 °F 57% 30.15 in 10.0 mi West 10.4 mph - N/A   Clear
11:53 AM 71.1 °F 57.0 °F 61% 30.16 in 10.0 mi SW 8.1 mph - N/A   Clear
12:53 PM 71.1 °F 55.9 °F 59% 30.15 in 10.0 mi WSW 8.1 mph - N/A   Partly Cloudy
1:53 PM 71.1 °F 57.9 °F 63% 30.13 in 10.0 mi SW 8.1 mph - N/A   Scattered Clouds
2:53 PM 70.0 °F 59.0 °F 68% 30.11 in 10.0 mi SSW 11.5 mph - N/A   Scattered Clouds
3:53 PM 71.1 °F 59.0 °F 66% 30.09 in 10.0 mi SSW 12.7 mph - N/A   Partly Cloudy
4:53 PM 70.0 °F 57.9 °F 65% 30.08 in 10.0 mi SSW 10.4 mph - N/A   Clear
5:53 PM 70.0 °F 55.0 °F 59% 30.07 in 10.0 mi SSW 10.4 mph - N/A   Clear
6:53 PM 68.0 °F 55.0 °F 63% 30.06 in 10.0 mi SSW 9.2 mph - N/A   Clear
7:53 PM 64.9 °F 57.0 °F 75% 30.06 in 10.0 mi South 9.2 mph - N/A   Clear
8:53 PM 64.9 °F 57.0 °F 75% 30.06 in 10.0 mi South 10.4 mph - N/A   Clear
9:53 PM 64.9 °F 57.9 °F 78% 30.07 in 10.0 mi South 10.4 mph - N/A   Clear
10:53 PM 64.0 °F 59.0 °F 84% 30.08 in 10.0 mi South 8.1 mph - N/A   Clear
11:53 PM 64.0 °F 59.0 °F 84% 30.07 in 10.0 mi South 10.4 mph - N/A   Clear